Weather History for McAlester, OK

Change the Weather History Date:

Tuesday, January 22, 2013

  Actual Average Record
Temperature  
Mean Temperature 40 °F -  
Max Temperature 55 °F 51 °F 76 °F (1967)
Min Temperature 24 °F 29 °F 2 °F (1959)
Degree Days  
Heating Degree Days 26    
Moisture  
Dew Point 27 °F    
Average Humidity 67    
Maximum Humidity 92    
Minimum Humidity 39    
Precipitation  
Precipitation 0.00 in - - ()
Sea Level Pressure  
Sea Level Pressure 30.27 in    
Wind  
Wind Speed 2 mph (South)    
Max Wind Speed 13 mph    
Max Gust Speed 20 mph    
Visibility 10 miles    
Events      
Averages and records for this station are not official NWS values.
T = Trace of Precipitation, MM = Missing Value Source: NWS Daily Summary

Daily Weather History Graph

Daily Weather History Graph

Search for Another Location

Airport:

Trip Planner

Search our weather history database for the weather conditions in past years. The results will help you decide how hot, cold, wet, or windy it might be!

Date:

Astronomy

Jan. 22, 2013 Rise Set
Actual Time 7:27 AM CST 5:42 PM CST
Civil Twilight 7:00 AM CST 6:09 PM CST
Nautical Twilight 6:29 AM CST 6:40 PM CST
Astronomical Twilight 5:59 AM CST 7:10 PM CST
Moon 2:07 PM CST (1/22) 3:48 AM CST (1/22)
Length of Visible Light 11h 08m
Length of Day
10h 14m
Waxing Gibbous, 83% of the Moon is Illuminated
Jan 22
Waxing Gibbous
Jan 26
Full
Feb 3
Last Quarter
Feb 10
New
Feb 17
First Quarter

Hourly Weather History & Observations

Time (CST) Temp. Windchill Dew Point Humidity Pressure Visibility Wind Dir Wind Speed Gust Speed Precip Events Conditions
12:53 AM 28.0 °F - 19.9 °F 72% 30.30 in 10.0 mi Calm Calm - N/A   Mostly Cloudy
1:53 AM 26.1 °F - 21.9 °F 84% 30.28 in 10.0 mi Calm Calm - N/A   Partly Cloudy
2:53 AM 28.9 °F - 21.9 °F 75% 30.29 in 10.0 mi Calm Calm - N/A   Mostly Cloudy
3:53 AM 28.0 °F - 21.9 °F 78% 30.30 in 10.0 mi Calm Calm - N/A   Mostly Cloudy
4:53 AM 24.1 °F - 21.0 °F 88% 30.29 in 10.0 mi Calm Calm - N/A   Partly Cloudy
5:53 AM 25.0 °F - 21.9 °F 88% 30.30 in 10.0 mi Calm Calm - N/A   Scattered Clouds
6:53 AM 25.0 °F - 23.0 °F 92% 30.33 in 10.0 mi Calm Calm - N/A   Mostly Cloudy
7:53 AM 28.9 °F - 24.1 °F 82% 30.32 in 10.0 mi Calm Calm - N/A   Mostly Cloudy
8:53 AM 34.0 °F - 25.0 °F 70% 30.32 in 10.0 mi Calm Calm - N/A   Clear
9:53 AM 39.0 °F 34.8 °F 23.0 °F 53% 30.34 in 10.0 mi South 5.8 mph - N/A   Partly Cloudy
10:53 AM 45.0 °F 39.7 °F 21.9 °F 40% 30.34 in 10.0 mi South 10.4 mph - N/A   Partly Cloudy
11:53 AM 48.0 °F - 24.1 °F 39% 30.30 in 10.0 mi South 8.1 mph 19.6 mph N/A   Partly Cloudy
12:53 PM 50.0 °F - 27.0 °F 41% 30.25 in 10.0 mi SW 12.7 mph 17.3 mph N/A   Clear
1:53 PM 53.1 °F - - N/A% 30.24 in 10.0 mi SSW 9.2 mph - N/A   Clear
2:53 PM 55.0 °F - 32.0 °F 42% 30.23 in 10.0 mi SSW 10.4 mph - N/A   Partly Cloudy
3:53 PM 55.9 °F - 32.0 °F 40% 30.22 in 10.0 mi SSW 4.6 mph - N/A   Clear
4:53 PM 54.0 °F - 32.0 °F 43% 30.22 in 10.0 mi South 6.9 mph - N/A   Clear
5:53 PM 50.0 °F - 33.1 °F 52% 30.22 in 10.0 mi SSE 5.8 mph - N/A   Partly Cloudy
6:53 PM 48.0 °F - 33.1 °F 56% 30.22 in 10.0 mi SSE 6.9 mph - N/A   Partly Cloudy
7:53 PM 46.0 °F 44.8 °F 33.1 °F 61% 30.22 in 10.0 mi South 3.5 mph - N/A   Partly Cloudy
8:53 PM 37.0 °F - 32.0 °F 82% 30.23 in 10.0 mi Calm Calm - N/A   Partly Cloudy
9:53 PM 34.0 °F - 30.9 °F 89% 30.24 in 10.0 mi Calm Calm - N/A   Partly Cloudy
10:53 PM 37.0 °F - 32.0 °F 82% 30.25 in 10.0 mi Calm Calm - N/A   Scattered Clouds
11:53 PM 35.1 °F 31.0 °F 32.0 °F 89% 30.26 in 10.0 mi ESE 4.6 mph - N/A   Partly Cloudy